Weather History for KNTD - August, 2013

Change the Weather History Date:

Tuesday, August 6, 2013

  Actual Average Record
Temperature  
Mean Temperature 64 °F -  
Max Temperature 68 °F 70 °F 82 °F (1997)
Min Temperature 60 °F 56 °F 53 °F (2002)
Degree Days  
Heating Degree Days 1    
Growing Degree Days 14 (Base 50)    
Moisture  
Dew Point 57 °F    
Average Humidity 77    
Maximum Humidity 90    
Minimum Humidity 68    
Precipitation  
Precipitation 0.00 in - - ()
Sea Level Pressure  
Sea Level Pressure 30.02 in    
Wind  
Wind Speed 8 mph (WSW)    
Max Wind Speed 85 mph    
Max Gust Speed 92 mph    
Visibility 7 miles    
Events      
Averages and records for this station are not official NWS values.
T = Trace of Precipitation, MM = Missing Value Source: NWS Daily Summary

Daily Weather History Graph

Daily Weather History Graph

Search for Another Location

Airport or City:

Trip Planner

Search our weather history database for the weather conditions in past years. The results will help you decide how hot, cold, wet, or windy it might be!

Date:

Astronomy

Aug. 06, 2013 Rise Set
Actual Time 6:11 AM PDT 7:52 PM PDT
Civil Twilight 5:44 AM PDT 8:19 PM PDT
Nautical Twilight 5:11 AM PDT 8:52 PM PDT
Astronomical Twilight 4:37 AM PDT 9:26 PM PDT
Moon 6:04 AM PDT (8/6) 7:34 PM PDT (8/6)
Length of Visible Light 14h 35m
Length of Day
13h 41m
Waning Crescent, 0% of the Moon is Illuminated
Aug 6
Waning Crescent
Aug 6
New
Aug 14
First Quarter
Aug 20
Full
Aug 28
Last Quarter

Hourly Weather History & Observations

Time (PDT) Temp. Dew Point Humidity Pressure Visibility Wind Dir Wind Speed Gust Speed Precip Events Conditions
12:54 AM - - N/A% - - WSW 6.9 mph - N/A   Overcast
1:54 AM - - N/A% - - SSE 10.4 mph - 0.00 in   Unknown
2:54 AM - - N/A% - - SSE 4.6 mph - 0.00 in   Overcast
3:54 AM - - N/A% - - Calm Calm - N/A   Overcast
5:54 AM 62.4 °F 56.3 °F 80% 29.99 in 4.0 mi Calm Calm - 0.00 in   Haze
7:54 AM 62.1 °F 56.3 °F 81% 30.01 in 7.0 mi Calm Calm - N/A   Overcast
8:09 AM 62.6 °F 57.2 °F 82% 30.01 in 7.0 mi Calm Calm - N/A   Overcast
8:54 AM 63.7 °F 57.0 °F 79% 30.04 in 7.0 mi SSE 5.8 mph - N/A   Mostly Cloudy
9:54 AM 66.0 °F 58.1 °F 76% 30.04 in 7.0 mi SW 5.8 mph - N/A   Mostly Cloudy
10:51 AM 68.0 °F 59.0 °F 73% 30.04 in 7.0 mi SSW 4.6 mph - N/A   Mostly Cloudy
10:54 AM 68.7 °F 58.3 °F 69% 30.04 in 7.0 mi SW 6.9 mph - N/A   Mostly Cloudy
11:54 AM 66.4 °F 58.6 °F 76% 30.04 in 7.0 mi WSW 8.1 mph - N/A   Mostly Cloudy
12:54 PM 66.9 °F 58.5 °F 74% 30.04 in 7.0 mi Variable 5.8 mph - N/A   Mostly Cloudy
1:54 PM 67.1 °F 57.9 °F 72% 30.04 in 7.0 mi WSW 9.2 mph 16.1 mph N/A   Mostly Cloudy
2:06 PM 68.0 °F 57.2 °F 68% 30.03 in 7.0 mi SW 10.4 mph - N/A   Scattered Clouds
2:54 PM 67.8 °F 57.0 °F 68% 30.04 in 7.0 mi West 12.7 mph 18.4 mph N/A   Scattered Clouds
3:41 PM 68.0 °F 57.2 °F 68% 30.03 in 7.0 mi WSW 15.0 mph 20.7 mph N/A   Mostly Cloudy
3:54 PM 67.8 °F 57.0 °F 68% 30.02 in 7.0 mi WSW 12.7 mph 20.7 mph N/A   Mostly Cloudy
4:54 PM 66.7 °F 57.9 °F 73% 30.01 in 7.0 mi West 10.4 mph - N/A   Mostly Cloudy
5:54 PM 65.5 °F 57.9 °F 77% 30.00 in 7.0 mi West 8.1 mph - N/A   Mostly Cloudy
6:54 PM 63.1 °F 57.0 °F 80% 29.99 in 7.0 mi WNW 6.9 mph - N/A   Mostly Cloudy
7:54 PM 62.2 °F 57.0 °F 83% 30.00 in 7.0 mi NW 5.8 mph - N/A   Mostly Cloudy
8:18 PM 62.6 °F 57.2 °F 82% 30.00 in 7.0 mi NW 4.6 mph - N/A   Scattered Clouds
8:54 PM 61.9 °F 55.9 °F 81% 30.00 in 7.0 mi North 3.5 mph - N/A   Scattered Clouds
9:54 PM 61.2 °F 57.0 °F 86% 30.02 in 7.0 mi NW 3.5 mph - N/A   Mostly Cloudy
10:54 PM 61.2 °F 57.0 °F 86% 30.02 in 7.0 mi WSW 4.6 mph - N/A   Mostly Cloudy
11:42 PM 60.8 °F 57.2 °F 88% 30.02 in 7.0 mi WSW 11.5 mph - N/A   Overcast
11:54 PM 60.8 °F 57.9 °F 90% 30.02 in 7.0 mi WSW 11.5 mph - N/A   Overcast
11:59 PM - - N/A% - - SSE 85.2 mph 92.1 mph 0.00 in   Unknown